EHI
0 0 0 0 0 0 0 0 0 0 0 0 0 0 0 0 0 0 0 0 0 0 0 0 0 0 0 0 0 0 0 0 0 0 0 0 0 0 0 0 0 0 0 0
0 0 0 0 0 0 0 0 0 0 0 0 0 0 0 0 0 0 0 0 0 0 0 0 0 0 0 0 0 0 0 0 0 0 0 0 0 0 0 0 0 0 0 0
0 0 0 0 0 0 0 0 0 0 0 0 0 0 0 0 0 0 0 0 0 0 0 0 0 0 0 0 0 0 0 0 0 0 0 0 0 0 0 0 0 0 0 0
0 0 0 0 0 0 0 0 0 0 0 0 0 0 0 0 0 0 0 0 0 0 0 0 0 0 0 0 0 0 0 0 0 0 0 0 0 0 0 0 0 0 0 0
0 0 0 0 0 0 0 0 0 0 0 0 0 0 0 0 0 0 0 0 0 0 0 0 0 0 0 0 0 0 0 0 0 0 0 0 0 0 0 0 0 0 0 0
0 0 0 0 0 0 0 0 0 0 0 0 0 0 0 0 0 0 0 0 0 0 0 0 0 0 0 0 0 0 0 0 0 0 0 0 0 0 0 0 0 0 0 0
0 0 0 0 0 0 0 0 0 0 0 0 0 0 0 0 0 0 0 0 0 0 0 0 0 0 0 0 0 0 0 0 0 0 0 0 0 0 0 0 0 0 0 0
0 0 0 0 0 0 0 0 0 0 0 0 0 0 0 0 0 0 0 0 0 0 0 0 0 0 0 0 0 0 0 0 0 0 0 0 0 0 0 0 0 0 0 0
0 0 0 0 0 0 0 0 0 0 0 0 0 0 0 0 0 0 0 0 0 0 0 0 0 0 0 0 0 0 0 0 0 0 0 0 0 0 0 0 0 0 0 0
0 0 0 0 0 0 0 0 0 0 0 0 0 0 0 0 0 0 0 0 0 0 0 0 0 0 0 0 0 0 0 0 0 0 0 0 0 0 0 0 0 0 0 0
0 0 0 0 0 0 0 0 0 0 0 0 0 0 0 0 0 0 0 0 0 0 0 0 0 0 0 0 0 0 0 0 0 0 0 0 0 0 0 0 0 0 0 0
0 0 0 0 0 0 0 0 0 0 0 0 0 0 0 0 0 0 0 0 0 0 0 0 0 0 0 0 0 0 0 0 0 0 0 0 0 0 0 0 0 0 0 0
0 0 0 0 0 0 0 0 0 0 0 0 0 0 0 0 0 0 0 0 0 0 0 0 0 0 0 0 0 0 0 0 0 0 0 0 0 0 0 0 0 0 0 0
0 0 0 0 0 0 0 0 0 0 0 0 0 0 0 0 0 0 0 0 0 0 0 0 0 0 0 0 0 0 0 0 0 0 0 0 0 0 0 0 0 0 0 0
0 0 0 0 0 0 0 0 0 0 0 0 0 0 0 0 0 0 0 0 0 0 0 0 0 0 0 0 0 0 0 0 0 0 0 0 0 0 0 0 0 0 0 0
0 0 0 0 0 0 0 0 0 0 0 0 0 0 0 0 0 0 0 0 0 0 0 0 0 0 0 0 0 0 0 0 0 0 0 0 0 0 0 0 0 0 0 0
0 0 0 0 0 0 0 0 0 0 0 0 0 0 0 0 0 0 0 0 0 0 0 0 0 0 0 0 0 0 0 0 0 0 0 0 0 0 0 0 0 0 0 0
0 0 0 0 0 0 0 0 0 0 0 0 0 0 0 0 0 0 0 0 0 0 0 0 0 0 0 0 0 0 0 0 0 0 0 0 0 0 0 0 0 0 0 0
0 0 0 0 0 0 0 0 0 0 0 0 0 0 0 0 0 0 0 0 0 0 0 0 0 0 0 0 0 0 0 0 0 0 0 0 0 0 0 0 0 0 0 0
0 0 0 0 0 0 0 0 0 0 0 0 0 0 0 0 0 0 0 0 0 0 0 0 0 0 0 0 0 0 0 0 0 0 0 0 0 0 0 0 0 0 0 0
0 0 0 0 0 0 0 0 0 0 0 0 0 0 0 0 0 0 0 0 0 0 0 0 0 0 0 0 0 0 0 0 0 0 0 0 0 0 0 0 0 0 0 0
0 0 0 0 0 0 0 0 0 0 0 0 0 0 0 0 0 0 0 0 0 0 0 0 0 0 0 0 0 0 0 0 0 0 0 0 0 0 0 0 0 0 0 0
0 0 0 0 0 0 0 0 0 0 0 0 0 0 0 0 0 0 0 0 0 0 0 0 0 0 0 0 0 0 0 0 0 0 0 0 0 0 0 0 0 0 0 0
0 0 0 0 0 0 0 0 0 0 0 0 0 0 0 0 0 0 0 0 0 0 0 0 0 0 0 0 0 0 0 0 0 0 0 0 0 0 0 0 0 0 0 0
0 0 0 0 0 0 0 0 0 0 0 0 0 0 0 0 0 0 0 0 0 0 0 0 0 0 0 0 0 0 0 0 0 0 0 0 0 0 0 0 0 0 0 0
0 0 0 0 0 0 0 0 0 0 0 0 0 0 0 0 0 0 0 0 0 0 0 0 0 0 0 0 0 0 0 0 0 0 0 0 0 0 0 0 0 0 0 0
0 0 0 0 0 0 0 0 0 0 0 0 0 0 0 0 0 0 0 0 0 0 0 0 0 0 0 0 0 0 0 0 0 0 0 0 0 0 0 0 0 0 0 0
Wind_Speed
2 3 1 1 3 3 2 2 4 4 4 3 3 2 2 3 4 6 6 7 7 7 6 7 7 7 7 7 7 6 6 6 6 5 4 4 4 3 3 2 2 2 2 2
3 3 2 2 3 2 1 2 4 5 2 2 2 3 3 3 4 4 4 5 5 5 6 6 6 6 6 7 6 6 7 6 6 6 6 5 5 4 4 3 3 2 2 2
2 4 3 3 3 2 1 1 4 4 4 4 3 3 3 3 3 2 2 3 3 4 4 5 5 5 5 5 5 6 6 6 6 6 6 5 5 5 5 4 4 3 3 3
1 3 1 5 2 2 2 1 2 3 4 6 5 4 2 3 4 3 2 2 2 3 3 4 4 4 4 4 5 6 6 6 6 5 5 5 5 5 5 4 4 4 4 4
1 0 4 5 2 2 3 2 3 5 5 5 5 3 1 1 3 3 2 1 1 1 2 3 4 4 4 5 5 6 6 6 6 6 5 6 6 5 5 4 4 4 4 5
2 1 4 4 2 1 2 3 4 6 8 7 6 3 4 3 3 3 2 2 1 2 2 3 3 3 4 5 6 6 6 6 6 5 5 6 5 5 4 4 4 5 5 5
2 3 7 5 2 3 3 6 4 7 8 8 7 6 4 5 4 3 3 2 2 2 2 2 2 3 4 4 4 4 4 4 5 5 5 5 5 4 5 5 5 5 6 6
4 3 8 3 5 6 7 2 3 5 6 7 5 4 5 5 5 4 3 2 2 2 1 2 2 3 3 3 4 4 4 4 5 5 5 5 5 5 5 5 5 6 6 6
8 9 5 4 6 4 4 3 4 5 5 7 6 5 5 5 5 4 3 2 1 1 1 2 2 2 2 3 4 4 4 4 4 5 5 5 5 5 5 4 4 5 5 6
5 8 6 5 4 3 4 5 4 5 6 7 7 6 6 5 4 4 3 2 2 1 1 1 2 2 1 3 3 3 4 5 5 5 5 5 4 4 4 5 5 6 6 7
6 7 4 5 7 6 4 4 4 4 5 7 8 6 6 6 5 4 3 2 2 1 1 1 2 2 2 3 3 4 4 5 5 5 5 5 5 4 5 5 6 7 6 6
9 8 6 6 6 6 6 6 6 6 5 5 7 7 6 5 4 4 3 2 2 1 1 2 2 2 3 3 2 3 4 4 4 4 4 5 6 7 8 8 12 13 12 11
7 4 5 5 4 6 7 7 6 7 7 6 5 5 6 5 4 3 3 3 3 2 2 2 2 2 3 3 3 3 4 5 4 4 5 5 5 6 8 9 11 12 13 14
6 3 3 5 5 6 6 6 5 4 5 6 5 5 5 4 4 4 4 4 3 2 2 2 2 3 3 2 3 3 4 5 5 4 5 5 5 6 6 7 9 7 9 13
7 7 7 5 3 4 4 4 5 5 5 5 5 5 6 6 6 5 4 3 2 2 2 2 3 3 3 2 3 4 4 4 4 4 5 5 5 5 6 6 7 7 7 8
4 4 4 5 6 6 5 6 7 7 7 6 6 6 6 6 4 3 3 3 3 3 3 3 3 3 2 2 3 3 3 7 7 5 5 5 5 5 6 6 7 7 7 7
4 5 6 6 7 7 7 8 8 8 7 7 7 6 5 4 4 3 3 3 3 3 3 3 3 2 2 2 3 3 3 5 8 6 5 5 5 5 6 6 6 7 7 8
10 10 8 8 8 8 7 7 7 7 7 7 6 6 6 6 5 4 3 2 1 2 2 2 2 2 2 3 3 3 3 4 4 5 5 5 5 5 5 6 7 8 7 8
7 8 7 8 7 8 7 7 7 7 6 6 7 7 6 5 4 3 3 2 2 3 3 2 3 2 2 3 4 3 3 4 5 5 5 7 7 5 5 6 6 7 7 7
5 5 5 5 5 5 6 6 6 6 6 6 7 6 5 4 4 4 3 3 3 3 2 2 1 2 3 3 4 2 3 4 5 5 5 5 5 6 6 6 6 6 6 6
4 4 4 5 4 4 5 6 6 6 6 7 7 7 6 5 4 4 3 3 3 2 2 2 1 2 3 3 4 2 3 4 4 4 5 5 5 6 6 6 6 6 6 6
3 3 4 4 4 4 4 4 5 6 6 6 6 5 5 5 4 3 3 3 2 2 1 1 2 3 4 4 2 2 3 4 4 4 4 4 5 5 5 6 6 6 6 6
3 3 4 4 5 4 3 4 5 6 6 6 6 6 6 5 4 4 3 2 2 2 1 2 3 5 5 2 2 2 3 4 4 4 4 5 5 5 5 6 5 5 5 5
3 3 3 3 4 5 4 4 4 4 4 5 5 5 5 4 2 2 2 2 2 2 1 2 4 5 4 1 2 3 3 4 4 4 4 4 4 4 5 5 5 5 5 6
3 3 4 5 5 5 5 4 4 4 4 3 3 3 3 3 3 3 2 2 2 1 1 2 4 4 2 2 3 3 3 4 4 4 4 4 4 4 5 4 5 5 5 5
4 4 4 5 4 4 4 5 4 4 4 4 3 3 3 2 3 2 2 2 2 1 1 1 2 2 2 2 3 3 3 4 5 4 4 5 5 5 5 5 6 5 5 5
3 3 3 3 3 4 4 5 5 5 5 5 4 4 3 3 3 3 2 2 1 1 1 1 1 2 2 2 3 3 3 3 4 4 4 4 4 4 5 6 5 5 5 5
Wind_Direction
281 274 271 331 337 10 70 138 144 157 154 183 175 141 110 82 70 60 49 43 39 34 28 28 29 28 28 27 26 30 37 36 28 21 23 24 19 19 19 18 4 349 333 321
346 349 6 347 332 349 43 105 122 125 151 177 150 114 94 86 84 68 51 43 38 37 32 26 24 23 23 23 20 29 36 31 24 21 20 18 12 10 9 3 353 348 333 318
311 325 15 321 280 234 179 163 156 180 196 157 138 140 153 142 120 113 85 56 46 36 30 21 17 21 20 14 17 29 31 25 19 15 14 9 4 5 360 352 349 342 327 309
351 26 283 257 274 198 163 231 182 157 158 162 161 157 148 151 148 139 115 76 43 32 26 17 17 20 19 22 25 28 25 17 10 9 6 0 4 1 350 344 341 331 318 307
100 313 281 285 261 176 159 254 211 166 161 156 136 95 357 232 163 158 152 130 88 44 38 28 20 14 26 27 24 25 17 8 0 358 357 356 356 348 339 336 331 321 313 306
124 200 244 249 227 177 111 267 220 171 169 166 149 168 234 196 159 138 117 103 88 57 46 37 12 16 38 25 21 13 0 354 352 354 353 347 338 330 326 323 317 315 311 305
175 240 264 248 197 115 169 241 194 171 173 171 183 199 178 150 148 141 128 114 99 81 57 22 1 31 39 22 5 344 343 348 352 352 345 334 329 324 320 319 317 313 307 303
172 213 257 213 147 184 216 217 159 167 172 169 170 144 141 149 150 147 137 122 111 94 52 4 10 34 27 358 331 336 345 349 345 341 338 339 334 328 325 323 319 314 311 309
197 218 245 207 205 216 180 179 182 171 170 156 154 163 162 162 163 164 160 156 141 126 70 3 4 27 12 331 334 344 349 342 334 332 332 333 330 326 326 325 320 316 313 310
255 261 252 241 235 223 196 194 187 173 165 161 165 169 169 170 174 176 176 171 155 133 95 335 335 349 327 322 339 351 345 336 332 330 327 327 324 321 322 322 318 313 311 308
254 266 275 257 225 213 198 182 170 167 171 171 165 171 176 179 184 185 184 180 167 172 210 276 309 330 337 342 353 348 336 329 327 324 320 319 317 310 309 295 300 308 303 300
227 224 206 238 222 195 186 193 185 173 175 177 173 176 175 181 185 182 185 180 182 208 248 281 301 310 321 331 341 334 327 324 321 320 320 321 319 316 310 307 313 312 307 305
223 220 213 244 220 190 191 195 189 184 182 183 184 177 172 177 181 180 185 190 203 219 235 254 275 287 300 314 324 320 313 313 313 315 317 317 318 317 317 319 318 316 315 316
228 209 232 226 218 204 195 192 183 181 183 178 175 169 166 168 173 186 200 206 204 206 225 240 259 273 283 298 309 306 304 306 308 303 303 304 305 305 305 310 315 315 316 318
235 215 218 220 207 190 177 165 169 183 180 178 172 170 172 178 189 200 201 187 178 200 228 245 262 274 289 299 304 304 305 301 301 299 299 298 298 299 300 302 302 305 311 316
252 235 215 205 204 197 182 183 190 198 191 185 183 187 186 183 182 179 175 167 178 217 236 251 263 273 288 293 300 298 297 306 312 306 301 300 299 300 303 304 305 306 308 310
215 224 213 213 211 207 202 200 198 197 191 190 193 184 167 159 163 180 193 197 203 222 236 247 262 281 287 287 286 286 290 301 310 307 298 298 299 299 300 302 303 305 304 307
222 223 213 206 204 207 209 204 197 191 192 193 175 161 165 175 190 198 199 191 205 251 255 252 261 271 280 285 282 281 287 290 296 297 298 299 301 298 299 300 303 305 307 310
231 226 220 212 205 200 200 200 196 192 183 168 166 174 181 186 188 185 173 176 205 243 262 268 282 281 281 287 299 281 288 294 296 296 296 304 308 302 302 303 305 307 309 312
241 227 215 209 199 192 193 189 180 174 172 166 164 166 172 181 177 172 173 198 219 230 242 260 263 273 279 282 299 284 289 294 296 298 300 298 300 302 305 307 308 309 310 311
248 229 209 198 194 189 182 175 169 171 168 165 169 176 180 179 173 168 174 214 238 225 220 260 263 272 276 290 302 289 289 294 296 296 301 302 303 305 308 311 311 311 313 314
247 225 208 189 175 177 174 165 163 162 160 165 168 167 165 170 175 182 197 208 212 211 201 232 255 280 298 308 294 288 290 293 295 297 299 301 303 305 307 308 308 310 311 312
239 215 196 185 176 165 151 156 163 165 168 172 174 175 177 179 178 181 209 208 195 224 216 237 276 296 309 312 290 289 291 292 294 297 299 299 299 300 302 304 305 307 309 311
222 201 188 166 146 148 165 178 168 166 167 170 175 173 166 165 183 201 186 184 209 232 221 271 295 304 316 309 288 286 287 289 289 290 292 294 296 297 298 301 304 307 308 310
207 192 175 165 172 182 177 163 152 155 158 165 169 170 169 169 175 178 169 183 213 221 240 281 298 308 312 288 284 285 286 286 288 295 295 297 298 298 296 298 301 303 303 305
198 196 198 196 190 176 166 166 172 174 171 173 175 170 161 151 147 150 159 174 198 231 241 260 279 293 287 285 286 289 290 297 307 306 298 297 296 297 295 296 297 295 296 297
196 190 183 188 188 177 173 176 180 185 184 179 175 171 165 160 157 159 162 168 188 217 239 256 269 278 282 284 287 291 295 295 295 294 293 291 291 292 296 296 294 294 294 295